SWA3217 KMDW-KATL

Flight info

Callsign SWA3217
Flight time 1h 29m
Altitude 38000
Route CMSKY CARYN CYBIL PXV BNA NEWBB IHAVE MTHEW CHPPR1
Aircraft B738/M-SADE2E3GIJ4RWZ/LB1D1

Departure

Time 2026-05-06 21:14
Airport Chicago Midway International Airport (KMDW)

Arrival

Time 2026-05-06 22:44
Airport Hartsfield Jackson Atlanta International Airport (KATL)
Time Latitude Longitude Altitude Speed Heading
2026-05-06 20:54 41.78881 -87.74359 628 ft 0 kts 175°
2026-05-06 21:08 41.78894 -87.74360 636 ft 4 kts 169°
2026-05-06 21:08 41.78919 -87.74371 630 ft 4 kts 152°
2026-05-06 21:08 41.78942 -87.74387 630 ft 4 kts 173°
2026-05-06 21:08 41.78951 -87.74388 636 ft 1 kts 217°
2026-05-06 21:10 41.78936 -87.74416 635 ft 10 kts 238°
2026-05-06 21:11 41.78872 -87.74551 632 ft 23 kts 234°
2026-05-06 21:11 41.78755 -87.74712 636 ft 23 kts 223°
2026-05-06 21:11 41.78615 -87.74777 634 ft 23 kts 163°
2026-05-06 21:11 41.78503 -87.74637 630 ft 22 kts 134°
2026-05-06 21:12 41.78399 -87.74491 634 ft 21 kts 134°
2026-05-06 21:12 41.78275 -87.74403 633 ft 21 kts 146°
2026-05-06 21:12 41.78159 -87.74308 632 ft 20 kts 178°
2026-05-06 21:12 41.78022 -87.74304 631 ft 19 kts 182°
2026-05-06 21:13 41.77972 -87.74434 634 ft 19 kts 295°
2026-05-06 21:13 41.78060 -87.74563 626 ft 19 kts 313°
2026-05-06 21:13 41.78076 -87.74586 626 ft 0 kts 313°
2026-05-06 21:13 41.78079 -87.74589 626 ft 4 kts 313°
2026-05-06 21:14 41.78268 -87.74858 629 ft 79 kts 314°
2026-05-06 21:14 41.78815 -87.75627 633 ft 145 kts 313°
2026-05-06 21:14 41.79580 -87.76650 1188 ft 159 kts 313°
2026-05-06 21:14 41.80323 -87.77730 2109 ft 159 kts 307°
2026-05-06 21:15 41.81069 -87.78907 2806 ft 169 kts 307°
2026-05-06 21:15 41.81837 -87.80138 3187 ft 179 kts 307°
2026-05-06 21:15 41.82447 -87.81662 3335 ft 198 kts 275°
2026-05-06 21:15 41.82059 -87.83483 3509 ft 220 kts 236°
2026-05-06 21:16 41.80803 -87.84797 3674 ft 245 kts 204°
2026-05-06 21:16 41.79072 -87.85204 4161 ft 261 kts 187°
2026-05-06 21:16 41.77266 -87.85311 5001 ft 261 kts 186°
2026-05-06 21:16 41.75419 -87.85402 5610 ft 268 kts 185°
2026-05-06 21:17 41.73541 -87.85487 6301 ft 272 kts 185°
2026-05-06 21:17 41.71646 -87.85584 7040 ft 273 kts 186°
2026-05-06 21:17 41.69739 -87.85695 7765 ft 275 kts 186°
2026-05-06 21:17 41.67814 -87.85816 8488 ft 279 kts 187°
2026-05-06 21:18 41.65870 -87.85945 9283 ft 280 kts 187°
2026-05-06 21:18 41.63913 -87.86079 10045 ft 283 kts 188°
2026-05-06 21:18 41.61917 -87.86222 10511 ft 297 kts 188°
2026-05-06 21:18 41.59763 -87.86383 10672 ft 322 kts 188°
2026-05-06 21:19 41.57449 -87.86554 10867 ft 345 kts 188°
2026-05-06 21:19 41.54997 -87.86732 11224 ft 358 kts 188°
2026-05-06 21:19 41.52493 -87.86906 11847 ft 362 kts 188°
2026-05-06 21:19 41.49960 -87.87082 12568 ft 366 kts 188°
2026-05-06 21:20 41.48278 -87.87201 13056 ft 367 kts 188°
2026-05-06 21:20 41.45713 -87.87383 13864 ft 371 kts 189°
2026-05-06 21:20 41.43124 -87.87570 14615 ft 374 kts 189°
2026-05-06 21:20 41.40519 -87.87763 15457 ft 375 kts 190°
2026-05-06 21:21 41.37917 -87.88004 16274 ft 374 kts 191°
2026-05-06 21:21 41.35314 -87.88270 16977 ft 377 kts 191°
2026-05-06 21:21 41.32689 -87.88541 17606 ft 380 kts 191°
2026-05-06 21:21 41.30051 -87.88806 18351 ft 380 kts 191°
2026-05-06 21:22 41.27412 -87.89065 18979 ft 381 kts 192°
2026-05-06 21:22 41.24751 -87.89304 19465 ft 388 kts 189°
2026-05-06 21:22 41.22022 -87.89298 19958 ft 395 kts 187°
2026-05-06 21:22 41.19258 -87.89209 20503 ft 398 kts 187°
2026-05-06 21:23 41.16476 -87.89100 21037 ft 402 kts 187°
2026-05-06 21:23 41.13671 -87.88989 21538 ft 405 kts 187°
2026-05-06 21:23 41.10845 -87.88883 22004 ft 408 kts 188°
2026-05-06 21:23 41.07999 -87.88782 22552 ft 410 kts 188°
2026-05-06 21:24 41.05143 -87.88686 23065 ft 412 kts 189°
2026-05-06 21:24 41.02265 -87.88594 23511 ft 416 kts 189°
2026-05-06 21:24 40.99360 -87.88504 23895 ft 419 kts 189°
2026-05-06 21:24 40.96442 -87.88412 24334 ft 420 kts 190°
2026-05-06 21:25 40.93525 -87.88319 24795 ft 420 kts 190°
2026-05-06 21:25 40.90597 -87.88226 25221 ft 421 kts 191°
2026-05-06 21:25 40.87666 -87.88133 25636 ft 420 kts 192°
2026-05-06 21:25 40.84759 -87.88036 26248 ft 417 kts 193°
2026-05-06 21:26 40.81850 -87.87946 26522 ft 421 kts 193°
2026-05-06 21:26 40.78907 -87.87863 26748 ft 426 kts 193°
2026-05-06 21:26 40.75933 -87.87775 27095 ft 427 kts 193°
2026-05-06 21:26 40.72964 -87.87682 27489 ft 428 kts 193°
2026-05-06 21:27 40.69983 -87.87588 27842 ft 429 kts 193°
2026-05-06 21:27 40.66991 -87.87495 28138 ft 431 kts 194°
2026-05-06 21:27 40.63984 -87.87402 28461 ft 433 kts 194°
2026-05-06 21:27 40.60978 -87.87306 28931 ft 431 kts 194°
2026-05-06 21:28 40.57996 -87.87206 29508 ft 427 kts 195°
2026-05-06 21:28 40.55042 -87.87108 30081 ft 423 kts 195°
2026-05-06 21:28 40.52104 -87.87015 30467 ft 421 kts 195°
2026-05-06 21:28 40.49174 -87.86929 30764 ft 422 kts 196°
2026-05-06 21:29 40.46238 -87.86844 31070 ft 422 kts 196°
2026-05-06 21:29 40.43305 -87.86755 31398 ft 421 kts 196°
2026-05-06 21:29 40.40388 -87.86664 31778 ft 419 kts 196°
2026-05-06 21:29 40.37475 -87.86574 32143 ft 418 kts 197°
2026-05-06 21:30 40.34569 -87.86486 32470 ft 417 kts 197°
2026-05-06 21:30 40.31672 -87.86397 32814 ft 416 kts 197°
2026-05-06 21:30 40.28775 -87.86290 33180 ft 416 kts 197°
2026-05-06 21:30 40.25889 -87.86163 33525 ft 415 kts 197°
2026-05-06 21:31 40.23002 -87.86030 33759 ft 415 kts 197°
2026-05-06 21:31 40.20122 -87.85896 34110 ft 413 kts 197°
2026-05-06 21:31 40.17258 -87.85762 34417 ft 411 kts 197°
2026-05-06 21:31 40.14395 -87.85635 34581 ft 413 kts 197°
2026-05-06 21:32 40.11552 -87.85515 34724 ft 415 kts 197°
2026-05-06 21:32 40.05777 -87.85262 35237 ft 414 kts 197°
2026-05-06 21:32 40.02897 -87.85133 35457 ft 414 kts 197°
2026-05-06 21:33 40.00018 -87.85008 35602 ft 415 kts 197°
2026-05-06 21:33 39.97129 -87.84882 35848 ft 414 kts 197°
2026-05-06 21:33 39.94252 -87.84754 36123 ft 413 kts 197°
2026-05-06 21:33 39.91380 -87.84628 36316 ft 414 kts 197°
2026-05-06 21:34 39.88492 -87.84505 36439 ft 416 kts 197°
2026-05-06 21:34 39.85592 -87.84382 36645 ft 417 kts 196°
2026-05-06 21:34 39.82704 -87.84254 36921 ft 415 kts 196°
2026-05-06 21:34 39.79817 -87.84125 37153 ft 415 kts 197°
2026-05-06 21:35 39.76932 -87.83999 37283 ft 415 kts 197°
2026-05-06 21:35 39.74055 -87.83871 37592 ft 412 kts 197°
2026-05-06 21:35 39.71189 -87.83745 37781 ft 413 kts 197°
2026-05-06 21:35 39.68306 -87.83625 37851 ft 416 kts 197°
2026-05-06 21:36 39.65409 -87.83505 37983 ft 417 kts 197°
2026-05-06 21:36 39.62505 -87.83381 38066 ft 419 kts 197°
2026-05-06 21:36 39.56673 -87.83127 38065 ft 418 kts 197°
2026-05-06 21:37 39.50912 -87.82862 38048 ft 410 kts 197°
2026-05-06 21:37 39.45236 -87.82610 38058 ft 406 kts 197°
2026-05-06 21:38 39.39598 -87.82374 38053 ft 406 kts 197°
2026-05-06 21:38 39.33902 -87.82149 38059 ft 413 kts 197°
2026-05-06 21:39 39.28128 -87.81908 38057 ft 416 kts 197°
2026-05-06 21:39 39.22322 -87.81656 38060 ft 418 kts 197°
2026-05-06 21:40 39.16497 -87.81402 38063 ft 420 kts 197°
2026-05-06 21:40 39.10656 -87.81149 38062 ft 419 kts 197°
2026-05-06 21:41 39.04881 -87.80896 38061 ft 417 kts 197°
2026-05-06 21:41 38.99098 -87.80648 38068 ft 415 kts 197°
2026-05-06 21:42 38.93332 -87.80403 38062 ft 413 kts 197°
2026-05-06 21:42 38.87600 -87.80160 38055 ft 411 kts 197°
2026-05-06 21:43 38.81901 -87.79916 38074 ft 408 kts 197°
2026-05-06 21:43 38.76204 -87.79682 38066 ft 410 kts 197°
2026-05-06 21:44 38.70485 -87.79445 38063 ft 411 kts 197°
2026-05-06 21:44 38.64757 -87.79204 38080 ft 412 kts 197°
2026-05-06 21:45 38.59029 -87.78959 38071 ft 410 kts 197°
2026-05-06 21:45 38.53329 -87.78716 38079 ft 409 kts 197°
2026-05-06 21:46 38.47643 -87.78478 38068 ft 408 kts 197°
2026-05-06 21:46 38.41969 -87.78242 38055 ft 408 kts 197°
2026-05-06 21:47 38.36293 -87.78006 38071 ft 408 kts 197°
2026-05-06 21:47 38.30611 -87.77771 38056 ft 409 kts 197°
2026-05-06 21:48 38.24916 -87.77534 38060 ft 410 kts 197°
2026-05-06 21:48 38.19204 -87.77297 38057 ft 411 kts 197°
2026-05-06 21:49 38.13479 -87.77058 38031 ft 411 kts 197°
2026-05-06 21:49 38.07754 -87.76820 38043 ft 412 kts 197°
2026-05-06 21:50 38.02009 -87.76583 38050 ft 414 kts 197°
2026-05-06 21:50 37.96240 -87.76331 38069 ft 419 kts 194°
2026-05-06 21:51 37.93270 -87.75788 37979 ft 443 kts 186°
2026-05-06 21:51 37.90253 -87.74686 38091 ft 461 kts 178°
2026-05-06 21:51 37.87245 -87.73013 38048 ft 477 kts 172°
2026-05-06 21:51 37.84270 -87.71165 38148 ft 478 kts 171°
2026-05-06 21:52 37.81288 -87.69273 38029 ft 480 kts 171°
2026-05-06 21:52 37.78312 -87.67376 38092 ft 479 kts 171°
2026-05-06 21:52 37.72350 -87.63629 38084 ft 478 kts 171°
2026-05-06 21:53 37.66422 -87.59972 38042 ft 476 kts 172°
2026-05-06 21:53 37.60465 -87.56328 38041 ft 476 kts 172°
2026-05-06 21:54 37.54515 -87.52699 38048 ft 475 kts 172°
2026-05-06 21:54 37.48562 -87.49071 38049 ft 475 kts 172°
2026-05-06 21:55 37.42614 -87.45450 37990 ft 474 kts 172°
2026-05-06 21:55 37.36685 -87.41845 38029 ft 473 kts 172°
2026-05-06 21:56 37.30758 -87.38251 38051 ft 473 kts 172°
2026-05-06 21:56 37.24824 -87.34660 38048 ft 473 kts 172°
2026-05-06 21:57 37.18888 -87.31074 37967 ft 474 kts 171°
2026-05-06 21:57 37.12951 -87.27490 38022 ft 474 kts 171°
2026-05-06 21:58 37.06992 -87.23902 38036 ft 476 kts 171°
2026-05-06 21:58 37.01009 -87.20310 38035 ft 477 kts 171°
2026-05-06 21:59 36.95004 -87.16830 37949 ft 479 kts 171°
2026-05-06 21:59 36.89005 -87.13166 38012 ft 480 kts 171°
2026-05-06 22:00 36.82981 -87.09509 38019 ft 482 kts 171°
2026-05-06 22:00 36.76928 -87.05882 38021 ft 483 kts 171°
2026-05-06 22:01 36.70857 -87.02266 37967 ft 484 kts 171°
2026-05-06 22:01 36.64786 -86.98654 38042 ft 484 kts 171°
2026-05-06 22:02 36.58705 -86.95042 38046 ft 483 kts 171°
2026-05-06 22:02 36.52647 -86.91445 38022 ft 481 kts 171°
2026-05-06 22:03 36.46659 -86.87899 38014 ft 479 kts 171°
2026-05-06 22:03 36.40666 -86.84356 38028 ft 475 kts 171°
2026-05-06 22:04 36.34696 -86.80844 38030 ft 474 kts 171°
2026-05-06 22:04 36.28740 -86.77335 38024 ft 473 kts 171°
2026-05-06 22:05 36.22790 -86.73835 38013 ft 473 kts 171°
2026-05-06 22:05 36.16850 -86.70347 37995 ft 472 kts 170°
2026-05-06 22:06 36.10944 -86.66699 37998 ft 480 kts 166°
2026-05-06 22:06 36.05120 -86.62561 37996 ft 485 kts 165°
2026-05-06 22:07 36.00280 -86.59065 38039 ft 485 kts 165°
2026-05-06 22:07 35.97347 -86.56975 37766 ft 488 kts 165°
2026-05-06 22:07 35.94398 -86.54891 37459 ft 487 kts 165°
2026-05-06 22:08 35.91471 -86.52824 37220 ft 483 kts 165°
2026-05-06 22:08 35.88559 -86.50774 36920 ft 481 kts 165°
2026-05-06 22:08 35.85652 -86.48736 36665 ft 480 kts 165°
2026-05-06 22:08 35.82749 -86.46703 36416 ft 479 kts 165°
2026-05-06 22:09 35.79850 -86.44674 36156 ft 479 kts 165°
2026-05-06 22:09 35.76958 -86.42650 35913 ft 478 kts 165°
2026-05-06 22:09 35.74073 -86.40632 35684 ft 477 kts 165°
2026-05-06 22:09 35.71188 -86.38602 35443 ft 478 kts 164°
2026-05-06 22:10 35.68313 -86.36555 35170 ft 478 kts 163°
2026-05-06 22:10 35.65439 -86.34501 34943 ft 478 kts 163°
2026-05-06 22:10 35.62563 -86.32445 34706 ft 477 kts 163°
2026-05-06 22:10 35.59690 -86.30403 34475 ft 477 kts 163°
2026-05-06 22:11 35.56815 -86.28363 34250 ft 477 kts 163°
2026-05-06 22:11 35.53942 -86.26331 34024 ft 476 kts 163°
2026-05-06 22:11 35.51069 -86.24323 33771 ft 475 kts 163°
2026-05-06 22:11 35.48196 -86.22323 33510 ft 475 kts 163°
2026-05-06 22:12 35.45323 -86.20321 33253 ft 475 kts 162°
2026-05-06 22:12 35.42460 -86.18282 32938 ft 481 kts 157°
2026-05-06 22:12 35.39699 -86.15824 32664 ft 497 kts 151°
2026-05-06 22:12 35.37004 -86.13120 32459 ft 504 kts 149°
2026-05-06 22:13 35.34316 -86.10350 32192 ft 503 kts 149°
2026-05-06 22:13 35.31632 -86.07628 31967 ft 500 kts 149°
2026-05-06 22:13 35.28929 -86.04969 31731 ft 497 kts 150°
2026-05-06 22:13 35.26221 -86.02350 31491 ft 495 kts 150°
2026-05-06 22:14 35.23511 -85.99755 31257 ft 494 kts 150°
2026-05-06 22:14 35.20802 -85.97169 31026 ft 494 kts 150°
2026-05-06 22:14 35.18089 -85.94583 30775 ft 495 kts 150°
2026-05-06 22:14 35.15365 -85.91987 30486 ft 500 kts 150°
2026-05-06 22:15 35.12628 -85.89324 30264 ft 507 kts 148°
2026-05-06 22:15 35.09871 -85.86641 30022 ft 505 kts 149°
2026-05-06 22:15 35.07101 -85.84020 29759 ft 503 kts 149°
2026-05-06 22:15 35.04332 -85.81414 29482 ft 502 kts 150°
2026-05-06 22:16 35.01567 -85.78808 29220 ft 502 kts 149°
2026-05-06 22:16 34.98844 -85.76232 28965 ft 502 kts 149°
2026-05-06 22:16 34.96052 -85.73584 28691 ft 501 kts 149°
2026-05-06 22:16 34.93309 -85.70978 28427 ft 500 kts 149°
2026-05-06 22:17 34.90605 -85.68409 28140 ft 498 kts 150°
2026-05-06 22:17 34.87884 -85.65829 27729 ft 493 kts 150°
2026-05-06 22:17 34.85146 -85.63233 27097 ft 490 kts 150°
2026-05-06 22:17 34.82477 -85.60700 26610 ft 484 kts 150°
2026-05-06 22:18 34.79858 -85.58222 25990 ft 482 kts 150°
2026-05-06 22:18 34.77185 -85.55698 25399 ft 479 kts 150°
2026-05-06 22:18 34.74549 -85.53210 24751 ft 479 kts 150°
2026-05-06 22:18 34.71931 -85.50737 24196 ft 476 kts 151°
2026-05-06 22:19 34.69321 -85.48272 23620 ft 474 kts 151°
2026-05-06 22:19 34.66731 -85.45808 22911 ft 473 kts 149°
2026-05-06 22:19 34.64211 -85.43362 22405 ft 465 kts 150°
2026-05-06 22:19 34.61658 -85.40978 21781 ft 460 kts 151°
2026-05-06 22:20 34.59105 -85.38672 21249 ft 456 kts 150°
2026-05-06 22:20 34.56615 -85.36322 20736 ft 452 kts 150°
2026-05-06 22:20 34.54141 -85.33989 20173 ft 449 kts 150°
2026-05-06 22:20 34.51684 -85.31668 19630 ft 446 kts 149°
2026-05-06 22:21 34.49231 -85.29383 19090 ft 442 kts 151°
2026-05-06 22:21 34.46774 -85.27160 18549 ft 441 kts 149°
2026-05-06 22:21 34.44365 -85.24874 17979 ft 439 kts 149°
2026-05-06 22:21 34.41970 -85.22599 17381 ft 434 kts 152°
2026-05-06 22:22 34.39358 -85.20983 16910 ft 417 kts 161°
2026-05-06 22:22 34.37032 -85.18804 16346 ft 433 kts 136°
2026-05-06 22:22 34.35096 -85.16078 15854 ft 424 kts 141°
2026-05-06 22:22 34.32896 -85.13758 15401 ft 414 kts 148°
2026-05-06 22:23 34.30611 -85.11673 14859 ft 410 kts 150°
2026-05-06 22:23 34.28318 -85.09658 14385 ft 406 kts 150°
2026-05-06 22:23 34.26051 -85.07647 13904 ft 403 kts 149°
2026-05-06 22:23 34.23849 -85.05647 13758 ft 390 kts 149°
2026-05-06 22:24 34.21718 -85.03683 13544 ft 380 kts 149°
2026-05-06 22:24 34.19653 -85.01766 13414 ft 369 kts 149°
2026-05-06 22:24 34.17649 -84.99902 13256 ft 359 kts 149°
2026-05-06 22:24 34.15698 -84.98090 13107 ft 349 kts 149°
2026-05-06 22:25 34.13801 -84.96326 13020 ft 338 kts 149°
2026-05-06 22:25 34.11987 -84.94610 12950 ft 328 kts 149°
2026-05-06 22:25 34.10191 -84.92909 12605 ft 326 kts 149°
2026-05-06 22:25 34.08435 -84.91242 12486 ft 318 kts 149°
2026-05-06 22:26 34.06697 -84.89597 12311 ft 317 kts 149°
2026-05-06 22:26 34.04968 -84.87962 12155 ft 316 kts 149°
2026-05-06 22:26 34.03240 -84.86328 11989 ft 315 kts 149°
2026-05-06 22:26 34.01514 -84.84698 11827 ft 315 kts 149°
2026-05-06 22:27 33.99795 -84.83076 11667 ft 314 kts 149°
2026-05-06 22:27 33.98072 -84.81451 11515 ft 314 kts 150°
2026-05-06 22:27 33.96359 -84.79882 11356 ft 314 kts 149°
2026-05-06 22:27 33.94646 -84.78241 11184 ft 315 kts 149°
2026-05-06 22:28 33.92929 -84.76603 11035 ft 314 kts 149°
2026-05-06 22:28 33.91208 -84.74976 10872 ft 314 kts 149°
2026-05-06 22:28 33.89490 -84.73356 10707 ft 314 kts 149°
2026-05-06 22:28 33.87769 -84.71741 10557 ft 313 kts 149°
2026-05-06 22:29 33.86050 -84.70127 10378 ft 313 kts 149°
2026-05-06 22:29 33.84337 -84.68518 10232 ft 312 kts 149°
2026-05-06 22:29 33.82626 -84.66912 10062 ft 312 kts 149°
2026-05-06 22:29 33.80912 -84.65302 9896 ft 312 kts 149°
2026-05-06 22:30 33.79201 -84.63696 9734 ft 312 kts 149°
2026-05-06 22:30 33.77490 -84.62099 9573 ft 311 kts 149°
2026-05-06 22:30 33.75782 -84.60499 9400 ft 312 kts 149°
2026-05-06 22:30 33.74196 -84.58693 9195 ft 323 kts 130°
2026-05-06 22:31 33.73322 -84.56185 9132 ft 329 kts 103°
2026-05-06 22:31 33.73191 -84.53438 8975 ft 330 kts 90°
2026-05-06 22:31 33.73244 -84.50685 8784 ft 331 kts 90°
2026-05-06 22:31 33.73280 -84.47916 8610 ft 331 kts 90°
2026-05-06 22:32 33.73294 -84.45150 8432 ft 331 kts 91°
2026-05-06 22:32 33.73298 -84.42389 8254 ft 328 kts 91°
2026-05-06 22:32 33.73298 -84.39675 8089 ft 323 kts 91°
2026-05-06 22:32 33.73298 -84.36992 7892 ft 320 kts 91°
2026-05-06 22:33 33.73298 -84.34323 7743 ft 320 kts 91°
2026-05-06 22:33 33.73296 -84.31651 7566 ft 319 kts 91°
2026-05-06 22:33 33.73295 -84.28999 7422 ft 317 kts 91°
2026-05-06 22:33 33.73298 -84.26358 7262 ft 316 kts 91°
2026-05-06 22:34 33.73302 -84.23719 7096 ft 315 kts 91°
2026-05-06 22:34 33.73305 -84.21104 6871 ft 312 kts 91°
2026-05-06 22:34 33.73308 -84.18513 6604 ft 307 kts 91°
2026-05-06 22:34 33.73309 -84.15994 6357 ft 297 kts 91°
2026-05-06 22:35 33.73310 -84.13545 6131 ft 289 kts 91°
2026-05-06 22:35 33.73313 -84.11161 5869 ft 282 kts 91°
2026-05-06 22:35 33.73316 -84.08867 5618 ft 275 kts 91°
2026-05-06 22:35 33.73215 -84.06580 5350 ft 267 kts 106°
2026-05-06 22:36 33.72431 -84.04675 5096 ft 250 kts 139°
2026-05-06 22:36 33.71075 -84.03617 5051 ft 220 kts 171°
2026-05-06 22:36 33.69645 -84.03646 5057 ft 201 kts 206°
2026-05-06 22:36 33.68584 -84.04631 5075 ft 193 kts 236°
2026-05-06 22:37 33.67820 -84.05971 5065 ft 195 kts 237°
2026-05-06 22:37 33.67065 -84.07296 5048 ft 187 kts 237°
2026-05-06 22:37 33.66356 -84.08547 5044 ft 175 kts 240°
2026-05-06 22:37 33.65910 -84.09899 5066 ft 175 kts 252°
2026-05-06 22:38 33.65533 -84.11290 5052 ft 174 kts 251°
2026-05-06 22:38 33.65172 -84.12676 5002 ft 176 kts 258°
2026-05-06 22:38 33.65097 -84.14155 4906 ft 178 kts 266°
2026-05-06 22:38 33.65041 -84.15632 4828 ft 175 kts 265°
2026-05-06 22:39 33.65007 -84.17093 4725 ft 181 kts 266°
2026-05-06 22:39 33.64992 -84.18596 4534 ft 179 kts 267°
2026-05-06 22:39 33.64985 -84.20084 4324 ft 176 kts 266°
2026-05-06 22:39 33.64982 -84.21553 4089 ft 175 kts 266°
2026-05-06 22:40 33.64976 -84.23017 3854 ft 174 kts 265°
2026-05-06 22:40 33.64975 -84.24456 3628 ft 173 kts 265°
2026-05-06 22:40 33.64973 -84.25911 3421 ft 176 kts 266°
2026-05-06 22:40 33.64970 -84.27380 3176 ft 176 kts 265°
2026-05-06 22:41 33.64965 -84.30284 2746 ft 171 kts 264°
2026-05-06 22:41 33.64962 -84.31712 2533 ft 168 kts 265°
2026-05-06 22:41 33.64963 -84.33045 2288 ft 155 kts 264°
2026-05-06 22:42 33.64960 -84.34285 2135 ft 149 kts 265°
2026-05-06 22:42 33.64958 -84.35538 1900 ft 150 kts 263°
2026-05-06 22:42 33.64959 -84.36784 1759 ft 150 kts 262°
2026-05-06 22:42 33.64954 -84.38005 1530 ft 141 kts 260°
2026-05-06 22:43 33.64952 -84.39199 1318 ft 145 kts 265°
2026-05-06 22:43 33.64956 -84.40425 1153 ft 147 kts 268°
2026-05-06 22:43 33.64953 -84.41626 1008 ft 138 kts 270°
2026-05-06 22:43 33.64955 -84.42468 1006 ft 64 kts 271°
2026-05-06 22:44 33.64883 -84.42776 1005 ft 0 kts 233°
2026-05-06 22:45 33.64849 -84.42805 1005 ft 14 kts 212°
2026-05-06 22:45 33.64733 -84.42876 1006 ft 20 kts 188°
2026-05-06 22:45 33.64599 -84.42829 1006 ft 21 kts 155°
2026-05-06 22:46 33.64473 -84.42795 1005 ft 17 kts 234°
2026-05-06 22:46 33.64459 -84.42938 1005 ft 18 kts 270°
2026-05-06 22:46 33.64459 -84.43095 1006 ft 20 kts 270°
2026-05-06 22:46 33.64460 -84.43266 1006 ft 21 kts 270°
2026-05-06 22:47 33.64386 -84.43393 1005 ft 22 kts 180°
2026-05-06 22:47 33.64238 -84.43392 1005 ft 21 kts 180°
2026-05-06 22:47 33.64093 -84.43392 1005 ft 20 kts 181°
2026-05-06 22:47 33.63953 -84.43393 1005 ft 20 kts 180°
2026-05-06 22:48 33.63873 -84.43382 1005 ft 5 kts 133°
2026-05-06 22:48 33.63867 -84.43338 1005 ft 5 kts 92°
2026-05-06 22:48 33.63867 -84.43337 1005 ft 0 kts 92°